Find Starlink 4786

NORAD ID: 55393 Int'l Des: 2023-014 Owner: SPXS Country: US Constellation: starlink operational
LEOCIRCULAR

实时位置

正在加载3D地球...

关于 Starlink 4786

正在加载描述...

即将过境

Passes for default location (London). Set your location on the main map for personalized predictions.

高度历史

Loading altitude history...

两行轨道根数

1 55393U 23014C 26121.19922772 -.00000042 00000-0 42797-5 0 9997
2 55393 69.9982 291.9574 0002754 270.3267 89.7576 14.98334514179924
Epoch: May 1, 2026 • Age: 8 hours

当前状态

高度 574.5 km
速度 7.57 km/s
星下点 0.17°N, 120.19°W
发射日期 Jan 31, 2023
运行时间 3.2 years
类型 internet

技术详情

分类 Payload
质量 305.00 kg
干质量 290.00 kg
总质量 305.00 kg
长度 0.20 m
直径 2.80 m
跨度 9.00 m
形状 Box + pan
制造商 SPXS
平台类型 Starlink
阶段状态 In Orbit
所有者/国家 SPXS/US

Most Searched